Wind_Speed
21 21 20 19 19 19 19 18 18 19 19 20 20 21 21 21 21 21 22 22 22 22 23 23 23 23 23 23 23 22 22 21 14 10 11 9 8 8 12 9 12 20 22 20 18 17 16 14 13 13 11 8 6 5 7 6 5 3 3 3 1 1 2 3 5 2 3 9 11 12 12 9 11 10 6 6 8 10 10 9 10 6 5 10 17 24 27 26
21 21 21 20 19 19 20 19 18 19 20 21 21 22 22 21 21 21 22 23 23 23 23 23 22 23 22 22 21 19 21 18 14 15 11 4 8 5 7 14 17 22 23 20 21 19 16 13 13 13 9 6 5 5 7 6 6 5 4 4 1 1 2 3 4 4 3 8 11 12 12 9 11 11 9 10 10 12 11 10 11 9 11 15 21 25 26 26
22 22 22 21 21 20 20 20 19 19 20 21 22 23 23 22 22 22 23 23 24 24 23 23 22 22 22 20 18 17 17 15 14 8 5 2 11 8 6 19 21 23 23 19 20 18 14 13 15 13 9 6 6 6 7 6 6 6 6 4 1 1 0 2 5 6 4 8 12 12 12 9 10 11 9 10 11 12 11 11 13 12 14 17 21 24 25 25
22 22 22 22 22 21 21 21 20 20 21 22 23 23 23 24 24 23 23 23 24 24 24 23 22 21 20 17 15 14 12 13 8 5 8 6 12 6 5 17 23 24 21 17 16 16 13 14 15 13 9 7 6 7 7 7 6 5 5 5 1 2 2 3 5 7 6 8 12 12 12 10 11 11 10 10 10 11 11 12 15 15 17 19 21 23 25 24
23 23 23 23 23 22 22 22 22 21 22 23 24 24 24 25 25 24 24 24 24 24 24 23 22 20 17 15 11 10 10 8 2 9 3 9 10 5 4 14 21 23 19 15 15 15 14 14 14 11 8 7 8 8 9 10 7 5 6 8 4 1 3 2 4 8 7 8 11 13 12 10 11 11 10 12 9 6 8 12 14 15 19 21 22 22 23 23
24 23 23 23 23 23 23 23 23 22 23 24 25 26 25 26 26 25 25 25 24 23 22 22 21 18 14 11 6 5 7 6 3 0 5 9 8 5 4 12 17 22 18 15 15 15 15 14 13 11 9 9 10 10 9 11 10 6 7 9 7 5 4 1 4 9 9 10 12 13 12 11 12 11 10 13 7 3 5 11 12 14 19 23 24 22 21 21
24 24 24 24 24 24 24 24 24 23 24 25 26 27 27 27 27 27 26 25 23 22 21 21 20 15 10 5 2 4 8 11 9 6 10 9 5 7 5 13 17 21 18 16 16 15 15 16 15 12 10 10 11 12 9 9 11 9 7 9 8 7 6 5 5 9 11 12 12 11 12 13 13 10 10 13 7 4 3 10 12 15 19 22 22 21 21 21
24 24 24 25 25 26 25 25 25 25 25 26 27 28 28 29 29 29 27 25 23 21 20 19 16 10 5 1 3 7 9 11 8 6 9 7 2 7 5 14 19 20 19 19 18 17 16 17 17 13 11 11 10 11 10 8 11 11 9 8 8 7 8 7 6 10 13 11 11 13 13 14 13 9 10 13 8 4 6 11 13 15 18 20 20 20 20 19
25 25 25 25 26 27 26 25 26 26 26 27 28 29 29 30 30 30 28 25 23 21 19 17 12 5 3 1 6 10 7 5 5 5 6 5 1 4 6 13 20 21 19 21 21 19 16 15 18 15 12 12 11 11 10 9 8 9 12 10 8 8 7 7 8 11 13 10 11 15 13 13 12 7 9 12 9 6 9 13 14 16 18 18 19 19 19 18
26 26 26 26 26 27 27 26 27 27 28 29 29 29 30 31 31 30 28 25 22 19 16 14 7 4 4 4 8 8 4 4 3 4 6 5 1 3 5 9 19 22 20 20 20 21 17 15 17 14 10 10 10 10 10 10 5 3 9 9 8 8 6 8 10 12 13 11 14 15 12 12 12 7 7 11 10 8 11 14 15 16 16 17 17 17 17 18
26 26 26 26 27 27 27 27 28 28 29 30 29 30 30 31 32 29 27 24 21 17 13 11 5 7 6 6 8 8 4 4 4 5 7 7 4 5 7 8 17 22 20 18 20 22 21 18 15 11 7 7 9 10 11 10 6 4 5 6 7 8 8 9 11 13 12 11 15 13 10 11 11 9 7 12 13 10 12 14 15 15 15 17 17 16 15 16
26 26 27 27 27 28 28 28 29 29 30 30 30 31 31 31 29 27 25 21 17 12 9 7 6 8 5 7 10 12 9 7 5 5 8 9 10 11 8 9 15 20 20 18 19 22 23 19 15 13 7 5 8 9 8 9 8 6 7 7 7 7 8 11 11 14 13 11 14 11 8 9 11 12 9 13 15 12 12 13 15 15 14 16 16 15 13 15
27 27 28 28 27 28 28 29 31 31 31 31 31 32 31 28 26 25 22 16 12 8 6 3 7 7 6 7 9 11 11 9 7 9 11 11 12 10 8 9 13 16 17 16 16 19 20 15 15 17 10 7 8 3 2 8 8 7 9 9 6 6 8 11 11 14 13 10 15 12 6 8 13 15 11 14 16 14 13 13 14 13 13 15 15 14 13 15
27 28 28 29 28 27 29 31 32 33 32 32 33 31 27 25 24 22 16 10 7 4 3 5 8 6 6 8 8 8 11 10 10 12 11 8 8 8 7 8 10 12 13 14 13 15 15 11 12 14 11 10 6 2 3 8 8 8 9 8 7 6 6 11 11 15 14 10 16 13 6 5 10 15 14 15 16 16 14 13 14 13 13 13 14 14 14 15
27 29 29 29 29 29 31 33 34 35 34 34 33 28 25 24 21 15 9 5 3 2 5 6 6 5 7 10 8 6 7 7 10 10 6 4 7 8 9 10 9 9 10 11 9 11 13 10 10 10 10 11 7 6 9 7 7 9 8 8 9 7 5 11 11 15 13 10 16 14 7 4 7 14 16 15 16 17 15 14 15 14 15 14 13 14 13 14
28 30 30 30 30 31 33 35 36 36 35 35 31 25 24 20 13 8 5 1 2 6 6 2 6 6 8 5 2 3 3 4 7 7 5 3 5 6 11 11 9 9 9 8 6 9 12 10 10 9 10 11 9 9 10 8 8 9 8 8 9 8 6 9 10 15 13 10 15 15 8 4 4 12 16 16 17 16 14 15 16 15 15 15 13 13 12 13
29 30 31 30 30 32 35 37 37 36 36 33 28 25 20 13 5 3 1 2 2 4 3 4 3 6 8 3 3 6 5 6 6 5 4 5 6 7 13 11 9 10 9 8 7 8 12 10 8 9 9 9 10 11 10 10 10 8 9 9 9 10 8 8 10 13 14 11 15 16 11 5 3 10 15 15 17 17 14 15 16 15 14 14 13 13 13 13
29 30 30 30 32 34 36 38 37 37 37 29 24 24 15 6 2 0 1 3 2 2 5 4 3 5 5 5 5 2 6 7 4 5 8 6 5 10 14 10 9 11 10 8 9 9 11 10 9 9 10 10 12 12 11 12 12 10 11 9 8 9 9 10 10 12 16 14 14 16 14 11 5 9 12 14 16 16 15 14 14 15 15 15 14 14 14 14
30 30 29 31 34 36 38 38 36 37 33 24 23 21 8 3 2 4 5 6 4 4 4 3 7 5 4 3 4 2 3 3 5 10 10 5 7 12 12 9 10 12 10 8 11 12 10 9 10 10 12 13 15 15 15 15 14 13 12 10 10 9 9 11 9 13 18 14 13 15 14 14 10 9 11 13 14 14 14 13 13 13 14 14 14 14 14 15
30 31 31 34 36 38 38 36 37 34 25 22 24 15 4 2 3 4 5 8 9 11 11 7 10 11 12 8 6 6 6 7 7 8 9 9 10 12 11 10 11 11 10 9 11 12 11 10 12 13 15 17 19 19 19 18 15 13 12 12 12 10 9 12 11 13 17 13 12 15 14 14 13 9 10 11 13 14 14 14 13 13 14 14 15 15 15 16
31 32 34 37 38 40 37 37 37 25 17 21 20 9 2 5 5 3 4 9 13 14 17 15 13 17 18 13 10 8 6 6 9 8 8 11 13 13 11 12 12 10 11 12 10 10 11 12 14 16 17 17 20 20 20 20 16 13 13 11 11 11 9 12 10 11 16 12 10 14 14 14 14 10 8 11 13 14 15 15 15 15 15 13 15 16 16 14
31 33 36 38 40 40 36 38 32 16 14 18 12 4 5 6 5 5 6 10 12 13 16 17 15 18 18 17 14 9 7 8 10 10 10 12 15 13 11 14 13 10 12 12 9 9 11 13 16 18 18 17 18 19 21 21 18 13 12 10 10 11 8 9 9 10 13 10 8 12 13 12 13 12 10 12 13 12 14 15 15 16 15 14 15 16 16 15
29 33 36 38 42 40 36 37 23 8 13 15 8 3 5 4 7 6 6 8 11 11 14 15 15 16 15 14 12 10 11 12 11 12 15 15 14 13 12 14 14 13 13 13 11 10 10 12 16 17 17 18 18 19 21 19 16 13 12 10 10 11 9 8 9 12 13 10 8 10 10 10 11 13 12 13 14 12 13 15 15 15 15 16 16 15 16 17
31 35 35 39 43 39 37 31 10 3 14 12 6 1 3 4 9 9 6 7 10 8 10 11 10 12 10 4 8 13 12 10 9 10 17 18 14 12 13 13 15 14 13 16 16 14 11 10 14 18 17 17 18 18 20 16 13 15 16 13 11 11 12 11 10 11 11 10 9 9 8 8 11 14 13 12 14 14 13 15 15 15 15 15 16 16 17 17
35 36 36 40 41 40 37 19 2 10 20 9 4 4 1 7 10 10 6 5 8 5 6 8 6 7 6 5 8 10 7 8 10 8 15 20 16 12 11 10 11 13 15 18 17 14 13 7 9 16 16 17 18 16 18 15 12 15 17 17 15 12 13 15 13 11 9 9 9 10 8 8 10 14 15 12 13 15 15 16 17 16 16 16 16 17 17 18
38 36 37 39 39 43 32 8 5 20 19 3 4 3 3 9 12 10 5 4 7 3 5 6 5 5 8 7 8 7 5 6 8 9 13 19 18 12 10 9 8 12 15 15 11 9 11 9 9 15 16 19 19 15 18 18 12 12 15 18 19 15 13 15 15 12 9 8 9 11 9 8 8 12 14 14 15 16 16 17 19 17 16 16 16 16 17 17
38 37 39 38 38 38 20 6 15 20 9 2 3 2 6 11 12 7 4 4 5 2 4 3 3 4 6 7 10 7 2 3 5 11 14 16 18 14 12 11 8 10 10 9 9 8 11 12 11 15 17 17 16 14 17 19 14 11 13 18 20 16 13 14 15 13 10 8 8 11 10 8 8 10 11 13 15 16 17 19 19 18 18 19 18 18 18 18
39 39 39 38 39 30 12 12 17 11 4 4 4 7 10 12 9 3 5 5 2 2 2 3 3 3 4 6 11 8 2 1 3 8 13 15 17 13 13 15 12 12 11 9 9 8 13 16 14 14 15 13 14 14 16 18 16 14 13 14 17 17 15 13 13 12 11 10 9 12 12 9 9 9 8 11 14 15 17 19 19 19 21 21 20 20 20 19
40 39 37 39 40 24 7 10 12 8 8 8 9 10 11 9 4 3 5 4 2 2 2 4 4 6 6 6 11 11 5 5 3 4 11 15 15 10 10 14 14 14 14 14 12 7 10 15 16 15 13 12 14 16 17 18 16 13 10 11 14 16 15 13 12 11 12 13 12 13 14 10 9 9 9 10 12 13 15 16 18 20 21 21 21 21 20 19
40 39 37 40 35 17 6 12 15 12 10 8 9 11 10 6 4 5 7 4 2 3 4 4 4 7 8 7 9 10 8 7 4 6 10 12 14 11 6 9 13 12 13 15 15 10 7 9 12 13 13 11 13 15 16 17 17 11 8 10 12 12 12 11 10 9 11 13 13 15 16 12 10 10 9 10 12 13 13 12 13 17 20 21 20 20 20 19
41 39 37 37 29 14 8 9 8 5 3 4 9 10 8 5 5 8 7 1 3 4 7 7 7 8 8 7 5 8 8 8 8 9 10 10 13 13 7 7 10 10 10 12 14 14 10 9 9 11 13 13 13 13 12 14 17 12 8 11 10 8 8 8 8 8 11 11 12 16 17 15 11 10 8 10 14 15 12 11 12 15 19 20 18 19 19 19
41 39 35 34 27 16 13 8 3 3 4 6 10 8 6 6 8 10 6 2 1 6 6 6 9 10 8 6 5 6 6 6 10 12 11 11 12 13 13 11 10 10 11 10 11 14 13 12 11 10 13 15 14 11 10 12 15 13 11 12 11 8 8 9 9 9 10 11 12 16 18 15 12 11 11 10 12 14 12 12 11 11 14 17 18 18 17 17
42 39 33 30 22 15 18 14 10 10 8 7 6 5 6 8 9 9 9 5 2 3 2 4 8 9 8 7 7 7 5 6 10 12 13 13 12 13 17 16 15 13 10 10 11 11 11 12 15 14 12 16 17 12 11 12 13 14 13 12 11 11 10 11 11 9 10 12 14 15 14 12 10 11 14 15 14 14 13 13 13 10 10 13 17 18 17 18
42 36 31 27 19 14 14 12 12 11 8 6 5 6 10 13 9 8 12 11 4 2 3 5 5 8 9 9 6 4 6 7 10 12 12 13 12 12 15 18 20 15 9 10 10 10 11 10 15 17 11 14 19 16 13 12 12 14 14 13 13 12 11 10 10 10 10 10 13 14 11 10 9 7 9 13 14 14 13 13 12 10 9 10 13 16 17 18
39 30 26 21 14 10 7 8 8 7 8 7 6 9 13 12 8 8 9 10 9 6 6 5 6 8 9 10 8 6 6 5 9 11 11 12 12 11 12 15 19 17 11 10 8 9 13 10 12 19 15 15 19 18 16 13 12 13 14 14 13 13 12 10 10 12 11 10 11 12 8 8 9 6 5 7 9 10 12 12 11 11 11 10 11 14 16 16
33 25 20 13 8 5 5 7 7 9 9 7 8 12 12 10 8 7 5 7 10 9 8 8 9 10 9 9 9 9 7 5 7 9 9 12 13 13 14 13 17 19 14 10 6 7 11 9 10 17 19 18 18 18 18 15 10 10 13 15 13 14 15 12 11 13 13 12 11 10 8 9 10 9 11 13 13 13 13 12 13 13 12 12 12 13 15 16
26 20 16 11 6 4 5 7 9 11 8 7 12 13 10 11 11 9 5 4 5 6 9 9 8 10 11 9 10 12 11 8 8 8 8 11 11 13 16 13 16 20 17 12 7 6 8 7 9 16 18 19 17 17 20 19 13 9 11 15 13 12 13 12 11 11 12 13 10 11 13 12 11 10 11 16 18 17 16 15 15 13 12 14 14 14 15 17
22 20 15 9 4 2 4 7 10 10 7 8 14 15 11 11 12 12 9 5 4 7 10 10 7 9 10 9 10 12 12 9 9 9 8 8 8 12 16 14 15 19 20 16 10 7 8 8 9 16 17 17 17 16 17 18 20 15 10 12 13 11 11 11 11 11 13 13 10 14 16 13 12 10 9 13 15 15 16 16 13 12 12 14 14 14 16 16
18 14 6 2 3 2 3 8 9 7 7 10 13 12 11 12 13 13 13 10 9 9 10 11 9 8 10 10 9 10 11 10 9 8 8 7 6 9 13 13 14 18 21 19 12 7 8 7 7 13 16 15 14 14 13 14 19 19 13 10 12 11 10 11 10 9 12 12 11 14 16 11 10 11 12 13 12 11 11 10 9 10 11 13 12 13 14 15
11 8 2 6 6 4 5 5 7 6 8 11 11 10 10 12 13 14 16 14 11 9 10 12 11 9 10 11 10 8 9 9 9 7 7 7 6 7 10 12 13 16 19 21 16 10 8 8 7 9 14 14 11 12 16 15 15 16 14 12 12 11 9 11 12 11 11 11 10 12 13 10 8 10 14 15 12 11 10 10 10 10 12 12 12 12 12 14
8 5 1 7 4 1 0 6 8 6 8 11 12 13 11 10 11 13 16 17 14 11 12 13 13 11 10 11 11 9 8 8 9 8 7 8 7 5 8 11 12 14 16 18 16 11 8 8 8 8 10 11 12 14 19 20 17 15 13 13 14 11 10 12 13 13 13 12 12 12 12 10 7 7 11 14 15 14 14 14 13 13 15 13 11 12 12 13
7 5 3 4 4 5 5 7 7 7 9 10 11 13 11 8 10 12 13 15 15 13 12 13 14 13 12 12 12 11 9 9 10 10 7 8 10 6 5 5 9 12 12 12 14 13 9 7 8 9 8 11 14 16 18 22 22 19 15 15 15 13 13 12 11 12 13 14 14 15 13 10 8 8 10 12 15 16 16 16 15 15 15 12 9 10 12 13
5 7 12 12 6 6 6 7 8 8 9 10 12 13 12 10 11 12 12 14 14 12 12 13 14 15 14 13 13 12 11 10 10 11 9 8 10 10 5 2 6 9 9 9 12 12 9 6 8 9 8 9 13 15 16 18 20 18 16 16 16 16 17 15 12 11 12 14 14 14 14 11 8 8 8 9 12 14 15 16 15 14 14 10 8 9 10 11
6 9 10 7 5 7 7 6 7 8 9 11 13 14 13 12 12 13 13 14 12 11 12 13 13 14 14 13 13 14 12 11 11 12 11 10 9 11 12 8 7 8 8 6 6 9 9 8 8 9 8 9 11 12 13 14 15 13 14 17 19 21 23 19 15 12 13 16 17 15 13 10 8 8 8 9 12 15 16 16 16 15 14 10 6 7 9 10
7 7 6 6 8 8 7 6 7 8 8 10 12 13 13 12 13 14 15 14 13 12 12 12 13 14 14 14 15 15 15 13 10 10 10 11 9 10 13 11 9 11 8 3 5 4 9 8 9 10 10 11 11 11 11 11 12 11 14 20 22 24 25 19 13 13 14 15 17 16 12 11 12 13 12 12 14 14 14 14 14 14 13 10 5 6 7 8
6 5 5 5 6 7 7 8 8 8 8 9 9 11 12 11 11 14 16 15 15 15 12 11 13 14 15 16 15 15 17 16 12 9 8 9 9 9 10 9 10 10 4 7 8 6 7 8 11 13 13 12 11 11 12 12 13 14 18 22 23 23 26 21 14 14 14 12 14 15 13 14 16 16 15 16 16 14 12 13 13 12 12 10 6 6 7 8
5 5 5 4 3 6 7 7 6 6 7 9 7 8 11 11 10 10 13 13 14 15 13 12 13 13 14 16 15 14 15 16 15 14 12 10 9 7 7 8 10 8 2 6 9 7 6 8 13 16 17 17 16 15 15 16 16 17 20 23 22 22 24 23 19 18 16 12 13 14 15 18 19 17 17 17 16 15 15 14 14 13 13 12 8 7 9 9
5 5 5 6 5 6 6 5 7 9 10 11 9 9 12 12 11 10 9 11 13 15 12 12 15 17 15 15 13 12 14 15 15 15 14 12 10 9 8 9 12 10 7 8 9 7 7 10 12 16 18 20 21 21 20 18 17 18 19 21 22 23 24 23 23 23 20 15 13 13 16 19 19 19 21 18 14 15 16 14 15 17 17 14 9 9 10 11
6 6 5 5 6 7 9 11 12 12 13 11 8 9 12 12 13 12 8 7 11 13 12 12 15 17 18 18 14 12 12 12 12 14 13 12 12 11 10 10 12 12 11 10 8 7 7 9 12 16 17 19 22 23 24 23 21 20 22 22 23 25 26 24 23 25 25 22 20 17 18 19 18 19 23 22 18 17 15 14 16 19 18 15 10 10 11 12
6 6 5 5 6 7 9 9 9 10 10 8 8 9 10 12 13 10 8 8 9 10 12 14 14 13 15 18 16 13 12 10 10 9 8 9 11 10 9 9 9 12 13 11 8 7 6 7 10 11 12 15 19 22 24 25 24 23 24 24 24 24 26 26 24 23 23 23 24 23 22 19 15 16 20 21 19 18 17 17 17 16 18 17 14 12 12 12
8 8 7 5 6 7 7 7 7 7 7 6 7 7 7 9 8 10 10 11 12 12 10 8 9 8 6 9 10 10 10 8 8 7 5 5 7 6 5 6 6 8 11 10 8 8 7 7 7 7 9 11 14 18 22 23 24 25 24 24 25 24 22 22 21 21 21 20 22 23 21 16 13 15 17 18 19 20 20 19 17 16 18 18 15 12 12 12
8 8 7 5 7 7 6 6 6 6 7 6 5 6 6 7 8 10 9 8 9 9 9 11 12 9 6 5 4 3 5 6 7 8 8 8 9 9 8 8 9 8 7 9 8 7 7 6 5 7 8 8 11 16 18 19 19 18 18 19 22 22 21 21 20 22 23 21 18 17 16 14 14 16 18 19 22 23 21 17 16 16 16 15 14 13 13 13
Wind_Direction
355 354 353 353 351 351 351 353 354 354 355 354 352 350 348 346 344 341 337 335 334 334 331 331 331 330 330 328 327 325 325 325 313 277 252 280 315 271 252 231 188 173 167 165 166 166 167 179 176 173 180 181 210 206 178 206 215 199 249 240 168 143 130 131 147 109 103 135 151 160 168 162 151 167 156 159 173 153 158 157 142 128 116 128 130 140 146 151
354 353 352 351 351 351 349 351 353 353 353 351 350 347 346 344 342 340 336 333 332 331 330 329 329 329 328 328 326 324 326 319 285 265 251 273 359 339 217 197 187 173 167 169 175 175 173 175 169 174 184 184 193 182 172 189 196 197 240 241 192 78 87 121 153 148 146 144 152 164 170 167 157 162 167 177 168 159 166 157 154 138 122 127 133 143 148 154
352 352 350 349 350 350 349 349 351 352 350 349 347 345 344 342 341 339 335 332 330 329 327 325 327 327 326 327 324 326 330 306 278 260 185 50 0 3 175 188 188 176 174 179 182 183 181 170 167 178 193 207 195 181 191 181 188 214 238 249 163 101 44 165 176 174 166 148 157 167 170 169 159 159 175 185 169 175 182 164 168 158 141 142 143 148 152 158
351 350 349 348 348 348 349 348 349 350 348 347 345 343 342 341 339 337 335 331 328 326 324 324 326 325 325 325 323 333 322 285 286 122 134 2 353 11 150 184 190 185 184 187 190 193 191 173 172 190 206 223 206 193 208 181 188 214 220 253 155 88 272 205 191 186 172 160 163 164 169 170 161 163 181 187 176 187 193 175 176 166 153 151 149 154 158 162
351 349 348 347 346 346 346 347 347 348 347 345 343 342 340 339 337 335 334 330 327 324 322 322 323 324 323 321 325 336 311 283 57 112 121 355 1 10 150 179 187 189 192 196 198 200 198 183 181 203 218 230 209 201 218 196 206 229 213 245 258 293 281 198 192 190 177 171 166 165 172 165 162 175 186 189 186 186 186 179 179 165 156 156 155 157 161 165
349 348 347 345 345 344 344 346 346 347 346 344 342 341 339 337 336 333 331 328 325 321 320 320 322 324 319 320 332 327 294 293 5 137 310 341 0 13 159 179 180 184 195 203 199 198 197 188 189 205 215 227 218 213 224 198 205 237 221 233 245 252 267 264 198 187 179 183 176 171 170 160 170 183 187 195 184 96 167 173 168 161 158 158 157 159 164 169
348 347 346 345 344 343 343 344 346 347 345 343 341 339 338 336 334 332 329 326 322 319 318 316 318 318 313 326 323 273 258 276 296 285 295 303 350 29 150 182 182 183 195 202 198 197 194 191 197 207 211 221 223 221 229 197 197 228 233 225 230 232 238 244 209 185 189 194 180 168 167 170 183 179 180 198 174 76 151 162 155 156 159 161 161 165 167 170
347 346 344 343 342 342 341 343 346 346 344 341 339 338 336 334 332 330 327 323 320 317 313 311 314 311 299 319 277 277 262 271 291 282 279 264 332 27 133 177 188 191 198 202 200 197 194 197 201 205 214 220 223 220 220 207 204 222 237 232 228 231 235 237 215 192 196 199 176 170 176 180 186 172 175 194 171 122 152 150 151 155 159 166 167 168 169 171
346 344 343 342 341 340 338 341 345 345 343 340 338 337 334 333 330 328 324 321 318 314 309 304 304 285 231 211 269 281 285 290 297 275 255 221 305 42 136 177 191 195 203 205 203 202 199 203 204 204 219 225 225 222 213 216 217 215 230 240 237 238 241 237 221 200 197 194 175 177 183 180 179 168 177 186 164 140 152 151 155 158 163 170 172 171 170 173
345 344 342 341 339 339 337 339 344 344 342 338 336 334 333 331 328 325 321 318 316 310 303 297 285 210 198 229 261 274 312 322 271 241 229 215 201 138 180 196 191 195 206 207 206 207 207 209 207 209 235 241 227 225 215 220 243 221 231 244 248 255 251 236 222 203 197 187 179 183 184 173 170 180 189 173 158 152 156 159 161 163 168 173 174 174 173 176
345 343 342 341 339 338 337 338 342 343 340 337 334 332 331 329 325 322 319 316 313 306 296 289 243 181 203 231 256 272 310 305 232 213 233 231 240 246 249 223 196 200 206 207 210 212 214 214 209 209 235 243 223 224 221 223 249 249 236 243 241 257 247 226 217 199 190 183 184 187 178 166 168 200 201 158 159 165 162 164 167 170 172 174 176 174 175 181
344 342 341 340 338 338 337 337 342 342 339 336 333 332 329 326 323 321 319 315 309 300 289 279 196 171 211 233 245 260 278 281 237 223 245 248 261 265 260 229 207 207 208 210 212 211 216 215 210 210 211 227 220 220 219 211 230 233 229 242 224 234 231 211 205 190 182 179 180 175 168 179 189 206 187 151 161 167 167 169 170 175 175 176 178 175 178 184
343 342 341 339 338 337 336 337 340 341 337 335 333 331 328 325 323 321 319 312 304 293 277 248 160 171 230 250 253 257 263 261 246 254 260 259 259 251 239 226 214 215 215 216 214 208 212 212 213 218 218 238 224 196 193 197 215 225 225 243 227 222 218 196 190 182 181 178 172 171 187 202 200 202 174 153 166 168 171 177 175 179 178 179 182 179 181 184
342 341 341 339 337 336 336 336 339 340 336 334 331 330 329 325 322 320 316 310 304 278 232 145 148 185 236 262 274 264 259 251 249 257 255 246 232 216 208 206 207 214 213 216 213 201 206 212 219 224 226 243 240 153 196 199 207 221 220 233 233 236 196 173 180 178 179 171 172 190 227 208 185 186 171 160 170 173 178 182 180 182 180 182 184 184 185 182
341 341 340 338 338 337 337 338 339 339 336 333 330 331 331 323 319 317 312 312 297 152 110 121 165 211 258 270 267 265 266 241 231 231 219 205 196 188 184 184 193 197 194 203 204 193 200 208 216 223 214 226 243 211 211 208 204 215 219 217 220 233 169 160 181 186 180 163 179 204 236 221 171 167 169 169 174 179 187 185 183 186 183 185 186 189 190 183
341 341 340 339 340 340 340 340 340 338 335 331 329 331 328 320 314 310 313 342 150 126 111 169 195 225 279 294 190 220 244 195 197 191 185 222 223 191 170 172 183 182 180 189 196 192 196 203 213 222 213 208 219 216 213 215 210 209 222 226 211 210 181 164 183 193 185 162 181 206 224 229 166 158 167 175 178 182 193 190 187 189 186 186 187 190 192 185
341 340 339 339 341 341 341 341 341 338 333 331 330 331 327 316 300 300 9 95 110 124 169 255 220 229 265 267 206 232 200 164 162 172 221 271 261 194 161 164 179 180 180 178 189 194 191 201 207 212 220 211 208 213 214 214 212 203 215 233 221 209 203 175 175 192 190 175 186 204 221 233 140 156 172 179 183 186 195 196 191 192 190 189 190 191 191 189
341 339 339 340 341 342 342 341 341 338 333 331 333 332 324 305 263 190 125 127 111 169 214 250 232 238 238 208 227 204 143 153 179 250 278 281 231 185 167 171 169 168 177 176 188 194 185 195 202 203 210 209 206 208 214 213 210 208 207 223 225 215 216 194 175 184 190 190 194 200 217 227 184 162 178 184 188 193 198 199 196 194 193 191 192 194 192 192
340 339 338 339 342 342 342 341 340 338 334 334 340 336 318 257 228 203 204 191 185 228 245 188 196 256 315 218 208 177 165 216 260 271 264 225 179 178 176 179 167 168 183 178 186 192 185 189 200 207 204 202 206 207 215 218 214 217 212 219 226 216 212 206 189 183 187 194 202 202 214 223 208 178 182 187 190 199 204 201 202 199 196 195 195 197 195 195
340 339 339 340 342 343 341 340 340 339 338 343 343 332 290 266 256 206 207 220 230 251 272 251 219 258 289 271 243 247 260 249 248 256 230 194 177 179 181 179 176 183 195 185 179 187 193 200 202 208 206 201 205 209 217 223 223 223 219 221 231 231 212 200 197 187 186 196 205 207 217 224 222 205 188 188 189 200 208 206 207 205 201 200 199 200 198 199
338 339 340 341 342 342 340 340 340 338 347 352 340 315 335 4 328 332 320 268 251 246 256 255 242 253 262 261 261 264 274 245 231 235 214 197 186 183 180 181 186 193 201 197 180 180 199 212 209 206 209 206 204 209 216 223 227 225 226 225 228 238 217 185 188 188 191 205 208 207 222 227 229 223 195 191 196 201 208 209 210 208 206 205 203 204 201 202
337 338 340 341 342 340 339 340 337 334 357 355 329 308 54 43 0 337 314 287 272 249 246 248 245 251 254 255 256 251 255 244 232 224 200 191 193 189 178 185 198 196 193 198 185 182 205 221 214 204 210 213 207 208 213 221 226 224 230 231 226 233 213 171 179 192 196 212 211 205 223 231 227 228 213 203 204 205 209 212 213 210 209 208 207 207 205 203
335 338 340 342 341 339 338 339 337 339 359 348 309 326 66 46 358 327 275 281 286 253 232 236 236 241 248 252 236 210 224 233 231 216 188 187 201 198 188 190 203 201 189 195 197 194 206 218 215 206 209 214 209 207 211 217 224 226 228 230 229 222 204 183 188 195 199 213 227 216 223 237 233 230 225 216 213 213 211 214 216 214 213 211 209 209 207 204
336 339 340 342 341 339 339 340 343 1 343 329 285 300 74 358 349 333 281 268 283 258 220 226 230 235 246 248 182 188 215 223 224 211 181 186 202 199 202 200 202 207 196 198 206 214 217 214 214 208 203 209 210 206 210 215 219 224 227 228 233 217 203 205 193 189 201 212 228 227 227 240 235 230 229 222 217 215 212 212 214 215 215 215 213 211 211 208
337 340 339 342 342 339 338 340 19 340 330 321 219 183 33 338 339 328 296 258 272 251 191 207 215 217 201 140 161 187 220 219 219 214 177 188 200 192 201 206 206 210 201 200 207 219 220 197 202 208 199 207 215 210 209 215 217 222 223 225 235 227 211 210 194 185 208 214 211 216 231 243 229 231 234 227 219 215 211 211 211 211 211 213 214 213 212 211
338 339 339 341 341 340 341 345 338 330 323 334 136 175 315 329 329 316 281 258 270 230 145 185 197 176 170 165 173 183 213 209 206 204 183 192 203 200 203 200 208 216 205 199 206 223 213 181 186 209 206 208 216 216 211 213 221 224 215 217 230 233 223 215 199 193 218 222 202 205 233 253 238 233 232 227 224 215 210 212 211 207 207 209 212 212 211 212
337 336 337 339 339 341 341 311 322 325 314 87 81 305 315 320 321 308 253 256 263 204 123 178 179 157 170 168 171 178 188 141 164 192 190 194 198 206 216 198 196 219 206 191 204 213 203 191 190 207 212 209 212 217 209 208 220 227 214 211 219 225 226 217 203 206 228 232 211 209 225 248 250 242 232 227 225 215 211 215 213 207 206 207 208 210 210 210
336 334 335 336 336 335 312 283 308 315 308 354 326 304 318 316 306 268 254 269 237 119 125 147 112 154 180 166 186 214 289 134 190 187 182 194 195 199 216 207 202 208 194 193 208 185 189 203 197 196 210 212 212 215 207 206 218 230 227 214 211 217 223 221 211 216 229 233 228 218 218 238 250 242 231 223 220 217 217 219 216 211 208 207 208 209 209 209
334 332 332 333 333 333 305 268 277 279 289 299 297 304 315 305 272 221 258 267 175 145 159 143 137 176 175 166 202 226 253 236 242 152 170 194 202 208 226 218 212 206 195 207 222 184 181 210 206 197 210 216 215 216 211 210 215 226 233 215 209 217 222 224 223 222 224 226 229 218 210 227 253 237 218 216 218 224 227 224 218 214 210 208 207 207 207 207
333 330 330 332 330 329 311 266 263 282 289 281 301 314 304 272 222 223 228 234 229 158 144 158 162 170 178 186 199 206 222 227 193 153 172 186 197 211 240 231 220 213 201 210 228 220 177 196 208 207 212 215 219 220 215 214 214 214 217 211 211 218 222 228 227 230 233 225 225 226 213 213 244 243 215 208 218 228 232 229 222 216 212 210 207 206 205 204
331 328 329 328 319 303 290 272 261 282 271 297 321 307 276 233 216 237 216 222 299 167 155 179 170 163 189 208 202 189 204 213 183 174 179 179 189 198 206 216 214 215 209 206 222 223 196 182 198 208 211 213 218 218 214 214 215 213 212 211 210 207 213 226 222 226 240 229 222 232 224 213 232 248 227 207 217 232 240 236 229 218 211 208 206 206 204 202
329 328 327 323 314 284 256 255 250 242 244 316 318 283 241 216 225 233 204 104 239 180 176 189 176 179 197 213 225 208 210 209 189 187 189 185 188 193 200 202 193 202 213 205 207 215 211 204 198 193 200 208 211 207 204 209 213 214 217 213 208 202 203 216 216 215 232 233 226 231 228 219 228 244 245 231 221 229 239 242 246 236 217 206 202 204 203 202
328 327 326 324 316 273 252 259 259 253 264 292 290 246 220 233 229 212 201 201 154 116 157 185 181 190 202 214 214 208 230 214 188 194 198 195 195 197 204 207 200 205 215 204 199 205 210 211 207 198 190 199 207 206 200 200 204 209 212 209 207 209 210 213 218 217 224 230 228 228 230 230 233 237 240 242 237 234 241 249 256 256 234 211 202 201 201 201
328 329 329 326 311 275 261 262 252 245 244 237 231 210 217 233 230 202 209 214 201 107 146 171 197 206 213 226 217 206 237 213 186 199 199 195 205 203 203 209 208 212 220 209 203 205 208 209 206 204 191 188 202 213 211 199 200 208 211 215 216 216 219 218 216 219 223 227 221 215 218 229 234 231 227 236 241 241 248 254 251 243 232 218 206 201 200 200
330 331 326 317 300 279 265 248 235 213 199 199 206 212 218 227 226 218 220 217 219 215 189 194 229 230 223 224 220 217 236 216 187 205 208 200 210 207 202 208 205 208 219 214 204 206 218 222 200 199 199 190 197 210 213 205 202 206 212 220 220 218 224 230 231 230 228 229 223 211 210 228 238 239 217 225 239 242 249 253 243 232 222 215 209 205 203 201
330 329 319 301 279 269 247 230 206 191 202 211 212 218 223 227 225 224 219 216 227 229 222 223 228 239 239 224 215 199 202 222 201 205 217 211 216 213 207 207 200 203 215 217 208 203 220 229 189 191 202 199 197 201 206 213 210 197 208 220 222 222 228 233 236 235 232 232 230 215 213 227 236 240 232 234 245 246 246 244 237 229 216 210 209 206 205 203
326 324 314 292 281 259 228 211 186 192 216 222 220 227 229 228 233 238 227 215 235 231 231 234 222 229 234 228 225 203 190 208 208 211 221 209 213 215 210 208 200 204 214 219 221 208 222 236 186 186 202 199 196 200 205 217 222 205 207 213 216 226 235 237 232 225 225 231 232 223 221 222 227 235 232 234 241 243 243 245 241 228 210 210 212 206 205 204
315 311 296 275 276 270 214 190 183 196 218 223 232 238 237 235 234 234 231 232 254 234 229 236 221 219 229 231 229 205 190 197 198 210 222 206 202 205 207 210 199 202 211 216 224 204 209 241 196 186 201 197 194 205 208 211 218 225 225 209 209 218 221 226 229 223 224 229 233 232 231 226 226 230 219 218 226 230 232 239 242 228 211 212 215 208 205 203
310 306 287 143 102 53 134 171 188 209 219 222 233 235 235 242 237 235 240 242 247 239 232 239 231 221 227 234 232 199 191 205 201 201 214 204 185 187 203 212 197 198 206 210 225 214 198 239 216 185 197 197 190 205 211 201 208 223 233 218 215 222 217 217 224 228 231 234 234 236 236 227 224 230 223 213 212 218 225 231 240 239 228 220 215 208 202 198
317 302 289 98 96 77 98 184 217 223 221 227 236 235 234 241 238 237 241 241 242 239 236 239 236 230 227 232 239 215 200 216 213 206 212 199 181 182 205 214 199 197 204 207 218 224 200 220 230 187 189 198 195 202 212 206 199 207 218 218 214 215 218 224 224 223 231 238 236 237 240 230 213 222 226 222 219 225 241 253 255 258 254 237 219 210 201 196
312 283 129 95 105 90 318 246 235 224 230 234 239 241 242 248 247 239 235 236 240 241 244 246 243 242 237 232 234 223 212 222 220 219 220 203 206 208 198 209 211 202 202 206 212 218 207 208 223 203 186 203 210 204 211 218 213 202 203 214 216 211 212 224 226 222 225 235 237 238 245 238 214 203 213 224 231 232 238 250 253 257 261 252 226 211 202 196
288 264 307 347 289 262 267 256 240 234 238 239 244 248 250 255 254 247 240 238 237 235 239 246 245 245 244 238 236 230 225 227 222 222 224 213 218 218 163 179 226 216 206 212 212 209 210 210 220 222 210 212 218 211 211 219 223 219 212 212 216 216 217 222 225 220 223 231 235 240 245 240 226 206 197 213 232 236 235 241 249 255 261 257 231 213 204 197
279 283 298 304 271 227 244 253 246 241 238 244 254 255 254 253 249 248 244 237 234 230 227 232 235 236 238 238 236 235 232 234 234 229 232 229 224 229 228 210 237 225 206 210 209 199 206 216 215 228 231 221 223 221 213 214 222 227 222 214 215 218 220 225 228 226 230 230 227 236 240 233 224 214 200 207 225 232 234 240 250 258 263 256 225 210 203 197
295 287 284 279 220 211 238 252 251 252 249 248 249 251 252 252 248 246 242 235 230 227 226 228 228 228 232 233 233 236 233 233 238 233 235 241 230 233 242 240 239 231 208 203 202 184 193 209 207 219 227 217 220 221 209 206 216 226 225 219 218 220 221 225 228 229 235 231 226 234 237 227 217 210 207 219 228 230 231 236 243 249 258 259 226 200 195 191
296 278 259 240 214 214 240 264 272 277 277 270 264 261 258 252 247 244 244 244 239 234 233 229 225 226 229 230 232 234 233 233 237 231 229 235 230 229 235 231 233 230 223 307 334 203 197 206 202 211 218 209 211 214 205 202 209 220 227 224 221 220 221 223 225 227 232 230 229 237 238 229 222 210 207 220 227 225 224 231 238 242 253 259 225 183 187 186
299 288 280 255 218 223 245 256 260 261 274 286 283 274 265 259 251 239 237 244 244 240 242 236 227 224 221 223 228 228 227 229 231 231 229 228 223 217 214 215 223 223 243 326 309 240 220 219 208 218 230 227 220 217 211 212 213 214 220 224 224 221 222 225 227 228 230 228 229 237 241 239 228 211 205 213 219 223 225 232 241 242 246 250 229 188 189 189
278 279 294 310 296 273 255 241 247 266 282 288 287 285 282 277 272 247 231 235 238 236 240 239 230 226 218 217 222 226 225 224 225 229 232 231 228 213 192 203 220 211 221 278 249 222 237 233 215 223 236 240 241 233 221 219 221 220 219 221 224 224 224 226 228 231 232 232 232 232 232 236 233 224 218 212 213 229 235 235 243 247 250 252 234 198 196 195
268 278 304 322 302 281 284 301 318 319 304 291 281 278 280 279 278 268 243 236 237 231 231 232 227 227 228 222 222 227 227 225 225 226 229 230 233 233 219 219 224 210 204 235 224 207 235 236 226 231 235 237 240 239 234 229 226 226 225 221 221 223 224 227 231 234 234 236 240 231 224 228 230 230 232 227 221 232 236 235 243 251 255 254 229 202 207 203
275 275 294 313 291 283 302 312 314 307 292 287 281 270 273 273 269 271 274 266 248 231 227 233 227 225 229 229 229 229 224 224 225 221 222 224 225 232 236 230 224 215 217 232 223 208 230 235 233 240 240 236 235 235 236 236 230 228 229 227 225 224 224 226 232 234 235 239 243 240 234 232 228 226 234 238 236 237 241 241 243 249 254 254 237 219 219 211
288 288 292 306 293 285 289 287 288 288 280 276 272 265 267 268 268 281 295 289 273 250 233 233 237 239 235 230 230 231 228 236 243 232 226 224 219 223 233 236 230 216 216 227 218 199 219 230 229 242 248 240 235 234 236 238 236 232 230 230 231 230 227 226 228 230 233 237 239 241 242 239 229 225 233 239 239 240 245 245 244 248 252 252 247 236 227 218
287 291 290 292 287 281 277 269 268 276 275 268 265 266 267 270 294 324 311 281 272 270 265 270 285 296 273 236 229 233 238 251 266 271 281 267 250 249 250 252 250 225 214 219 207 192 214 232 227 241 249 237 230 231 233 237 240 238 232 228 229 231 231 231 228 227 229 231 233 236 240 239 229 228 232 234 234 237 242 242 242 244 245 246 246 240 232 223
278 278 267 266 277 278 276 274 267 264 268 272 280 291 292 295 322 334 315 283 274 284 318 340 333 323 300 260 243 274 310 314 300 293 292 281 273 276 275 271 269 258 234 224 216 206 219 235 230 235 247 246 237 234 232 233 237 237 232 229 230 232 234 236 234 229 227 229 231 233 236 236 232 231 231 228 229 233 237 238 240 242 241 241 241 239 236 227
Height
810 808 806 805 803 802 800 799 798 796 795 794 792 791 789 788 786 784 782 780 779 777 776 774 772 771 769 768 766 764 762 760 760 759 757 754 752 751 751 752 752 754 757 759 761 761 761 762 762 762 764 764 764 762 762 762 759 769 782 786 788 786 780 774 774 774 772 774 776 776 775 781 788 785 779 781 784 787 790 789 788 789 787 788 791 796 801 807
810 808 806 805 803 801 800 798 797 796 795 793 791 790 788 787 785 783 782 779 778 776 774 773 771 770 768 767 765 763 761 759 757 754 752 751 750 749 749 750 751 753 755 757 758 757 759 761 761 762 764 765 763 761 764 761 760 775 783 783 782 777 768 761 763 765 765 770 773 774 774 777 783 783 780 787 792 790 794 794 791 794 793 792 794 798 803 807
809 808 806 804 803 801 800 798 796 795 794 792 791 789 787 786 784 782 781 779 777 775 773 772 770 769 767 766 764 763 761 758 755 749 748 749 749 748 747 749 750 751 753 756 756 756 758 759 760 762 764 766 762 762 767 763 763 768 772 780 775 764 761 757 758 761 760 763 771 775 773 775 778 777 780 787 791 792 794 794 794 798 798 797 796 799 803 806
809 807 805 804 802 800 799 797 796 794 793 791 790 788 787 784 783 781 779 778 776 774 772 770 769 768 767 765 764 764 760 759 753 745 746 748 747 747 747 748 750 752 753 755 756 756 756 757 759 759 765 768 760 761 767 763 763 762 766 776 765 757 763 758 754 756 755 758 767 772 774 778 775 774 780 784 792 796 789 786 788 792 795 796 796 798 802 805
809 807 805 803 801 799 798 796 795 793 792 790 789 787 785 783 782 780 778 777 775 773 771 769 768 767 766 764 765 763 762 765 753 743 747 747 746 746 746 748 749 752 753 755 755 755 755 755 758 761 765 767 762 764 765 756 756 762 764 763 755 756 764 756 750 754 754 757 763 771 776 777 773 776 779 782 791 790 780 777 779 782 788 791 794 797 800 803
809 806 804 802 800 799 797 795 794 792 791 789 787 785 784 782 780 778 777 775 773 771 770 768 767 766 765 764 764 763 767 767 749 743 747 745 747 746 746 748 749 752 754 754 753 753 755 755 761 766 766 766 763 763 760 750 753 766 764 755 753 755 759 754 749 752 754 759 765 769 770 769 775 780 777 778 782 777 769 770 773 778 783 787 791 795 799 802
808 806 804 802 799 798 795 794 793 791 790 788 786 784 782 780 778 777 774 773 771 769 768 767 766 765 764 764 764 762 764 758 743 743 746 744 747 745 746 748 749 753 753 753 752 752 754 757 762 762 765 766 761 758 753 748 752 765 765 755 752 752 754 752 748 752 754 759 761 761 764 770 779 780 776 777 775 771 768 767 771 777 781 786 790 794 797 800
808 806 803 801 799 797 795 793 791 790 788 786 784 782 780 778 776 774 772 771 769 767 767 765 765 764 763 764 763 762 758 750 742 744 744 744 746 744 746 747 750 752 750 751 749 749 752 757 758 756 764 763 754 754 750 752 756 761 762 754 750 750 750 747 747 752 754 756 756 759 767 771 773 772 776 777 772 771 769 769 773 777 782 786 790 793 796 799
808 806 803 801 798 796 794 791 790 788 786 784 783 781 779 776 774 772 770 769 767 766 764 763 763 762 764 763 762 764 754 742 742 744 743 744 744 744 746 746 749 749 748 749 746 748 751 754 754 750 758 755 749 751 748 758 761 754 754 751 749 750 747 746 749 751 754 753 755 764 771 769 765 769 778 774 770 772 770 773 776 779 785 787 790 792 795 799
808 805 803 800 798 795 793 791 789 787 785 783 780 778 777 774 772 770 768 766 765 763 761 761 761 761 764 761 762 764 748 738 742 742 742 744 743 745 745 745 746 746 746 746 744 745 745 748 746 742 749 749 747 749 748 755 753 744 748 748 748 750 746 747 750 750 752 753 756 766 772 768 764 773 783 773 768 772 772 777 778 781 786 787 789 791 794 798
808 805 803 800 797 795 792 790 787 785 783 781 779 776 774 772 770 768 766 764 762 761 760 759 759 761 762 761 763 759 742 739 743 740 742 742 743 744 743 744 744 744 743 742 742 741 741 742 738 742 752 750 747 750 747 745 744 742 748 751 751 751 749 749 751 750 752 757 756 760 769 770 770 778 778 769 768 772 775 779 780 782 786 786 789 791 794 796
808 805 802 800 797 794 791 789 786 784 781 779 777 774 772 770 767 765 763 762 760 759 758 758 759 760 761 760 756 747 739 741 741 740 742 740 742 742 741 743 741 741 740 739 739 739 741 739 737 747 751 746 750 755 747 738 741 745 749 758 758 754 756 752 750 750 753 760 754 758 780 784 780 778 768 764 768 771 775 780 781 783 785 786 788 790 793 795
807 805 802 800 796 794 791 788 785 783 780 777 774 772 770 767 765 763 761 760 759 758 757 757 758 759 762 757 744 738 739 740 739 739 740 739 739 739 739 741 740 740 739 738 738 738 740 739 740 745 741 744 751 748 740 736 743 750 750 758 762 764 765 752 748 751 755 760 750 762 793 790 776 770 762 763 767 771 778 780 781 783 783 785 787 789 792 793
807 804 801 798 795 793 790 787 785 781 778 775 772 770 767 764 763 761 759 759 758 757 757 757 759 761 761 750 736 736 737 737 738 738 737 737 737 737 738 738 739 740 739 739 738 738 741 739 740 741 739 743 742 738 743 745 748 753 756 758 762 771 769 751 749 755 760 760 750 765 790 781 765 764 761 762 765 770 778 779 780 781 782 784 785 787 790 790
806 803 800 797 794 792 789 786 783 780 777 773 770 768 765 763 761 759 759 758 757 758 757 758 759 759 757 744 733 734 734 734 736 735 736 736 735 735 736 737 738 738 739 739 738 739 741 741 743 747 745 741 740 748 755 754 751 753 765 770 763 766 767 757 752 753 761 762 754 769 786 774 760 759 759 760 763 768 775 777 778 779 781 783 784 786 788 789
806 803 800 797 794 791 788 785 782 778 775 771 768 766 763 761 759 759 758 757 758 758 758 760 758 758 757 743 732 733 733 732 733 733 735 734 734 733 734 737 737 738 739 738 739 739 739 742 744 744 744 745 750 756 758 762 761 755 764 771 761 762 768 766 758 749 754 763 762 770 779 773 760 756 758 759 761 767 772 774 776 778 779 781 783 784 786 787
806 803 799 796 793 790 787 783 780 777 772 769 766 763 761 759 758 758 758 758 759 758 759 759 756 758 751 735 732 733 729 729 732 732 733 733 733 732 732 735 736 737 737 738 740 739 740 744 745 745 745 749 750 753 764 775 772 761 761 763 755 755 762 767 766 753 749 762 768 769 771 769 760 757 759 760 760 765 770 772 773 775 777 778 780 782 783 786
806 803 799 796 792 789 786 783 779 775 771 767 764 761 759 757 757 757 757 758 758 759 760 758 757 760 748 734 734 731 725 728 730 730 731 731 731 731 732 732 733 736 739 742 743 742 744 744 746 752 752 751 748 752 768 771 763 761 762 763 758 754 758 763 765 756 751 761 768 771 774 768 761 760 761 760 759 765 768 768 770 772 775 777 778 780 781 783
805 802 799 795 791 789 785 782 779 775 770 766 763 760 757 757 757 757 757 757 757 756 754 752 751 750 741 732 729 725 724 727 729 729 728 729 730 731 730 731 731 736 744 749 748 744 745 748 752 757 755 752 748 746 754 751 747 751 752 756 758 756 757 755 754 749 750 763 767 770 775 768 762 763 763 761 759 764 766 765 768 770 772 775 777 777 778 780
803 801 798 794 791 787 784 781 778 774 770 766 763 759 757 757 755 753 754 752 748 743 738 739 738 734 731 727 723 724 725 726 727 726 725 727 728 730 730 730 733 739 743 748 749 742 742 753 757 754 749 744 742 740 739 737 736 741 746 750 751 751 753 747 747 745 743 761 767 763 768 766 761 760 760 760 760 764 767 767 768 769 770 772 774 775 775 777
802 800 796 793 789 785 782 780 776 773 771 768 765 761 759 760 759 758 756 746 736 732 731 729 729 728 724 722 720 722 726 727 725 723 724 725 724 731 733 732 740 746 741 740 742 739 743 754 751 742 739 735 736 736 736 736 736 741 745 748 750 749 746 740 745 746 742 757 763 758 765 766 759 757 756 759 763 765 765 766 768 767 768 769 771 773 773 773
802 799 795 792 788 784 781 778 775 772 771 769 767 763 762 765 766 765 763 751 733 727 727 724 725 723 717 717 719 721 728 731 728 722 721 722 724 731 733 733 742 744 737 736 742 749 754 753 741 733 731 730 732 733 735 738 739 743 744 747 752 746 742 744 747 748 747 756 761 758 765 766 757 754 755 757 761 760 758 759 762 764 766 767 768 770 770 771
802 797 794 791 786 783 779 776 773 771 770 770 769 766 765 767 767 766 766 758 738 723 721 722 723 721 717 717 716 720 728 728 729 722 715 721 724 725 730 734 739 737 736 740 745 754 758 747 732 727 728 731 736 734 736 740 740 743 743 749 752 741 747 761 758 753 750 752 756 756 764 765 757 754 753 753 754 754 753 754 755 758 761 763 763 764 766 768
800 797 794 790 786 782 776 774 772 771 771 770 769 768 767 768 767 766 764 755 738 721 714 715 715 716 716 714 712 718 723 720 722 718 710 718 723 721 726 730 734 736 735 737 741 746 745 733 723 724 729 733 739 737 737 743 744 742 739 744 746 739 746 757 754 754 753 753 752 757 772 771 759 759 756 750 749 751 751 753 755 755 755 757 758 759 761 763
799 797 793 789 786 780 776 774 771 771 771 767 768 768 768 768 766 767 763 753 739 720 712 712 712 713 710 711 713 713 717 717 715 711 705 711 717 721 725 723 728 736 734 733 738 741 736 725 722 729 733 735 740 739 737 741 746 744 736 734 736 735 740 745 747 757 769 771 757 760 788 784 758 757 757 749 749 751 750 751 755 755 753 755 757 757 757 757
798 795 792 790 786 780 775 772 771 772 768 766 768 767 768 768 765 768 763 754 740 718 713 716 714 712 708 710 711 710 721 719 706 703 704 707 708 713 724 723 723 730 727 727 735 735 729 724 726 733 736 737 740 740 734 734 745 747 732 725 729 731 737 742 747 761 775 775 756 754 784 788 764 755 750 745 749 751 750 750 749 751 751 752 753 753 753 754
797 793 792 789 785 783 779 773 774 772 767 768 768 767 768 766 765 767 763 761 742 713 711 717 712 711 707 707 706 713 727 718 704 703 702 705 705 706 722 726 725 726 718 725 740 733 725 728 733 734 735 738 741 740 731 728 744 743 721 719 729 732 739 741 747 761 762 758 756 753 768 785 778 757 742 740 747 750 750 749 746 745 746 746 746 747 748 749
796 792 790 788 785 785 783 778 776 772 769 769 767 769 767 764 766 764 766 769 739 705 707 712 708 707 704 704 705 710 714 708 712 711 698 702 705 707 722 723 724 726 716 728 744 730 721 730 734 733 736 737 735 731 724 725 738 732 713 716 725 730 736 737 744 756 753 759 775 762 760 785 783 755 740 741 748 753 750 745 742 740 739 740 740 741 742 743
794 790 788 786 783 781 780 778 775 771 770 768 767 769 765 765 766 759 768 767 727 699 703 706 707 708 705 708 709 708 706 705 714 709 698 704 703 706 720 715 715 723 718 725 733 723 719 722 721 727 735 732 726 722 718 724 731 721 712 718 723 726 731 734 741 750 752 765 778 762 757 782 782 754 745 749 752 751 744 736 734 732 732 733 733 734 736 738
792 788 786 784 781 779 778 776 771 768 767 766 767 767 765 766 762 764 776 759 717 703 703 703 708 707 707 713 712 709 709 707 706 704 705 708 705 706 711 706 708 718 721 723 724 718 713 712 712 718 724 721 719 717 714 718 720 717 720 727 730 730 731 735 737 742 757 767 766 754 748 769 780 755 738 744 744 737 732 728 727 726 726 727 727 729 730 732
789 785 783 782 780 779 778 772 767 766 766 766 766 765 766 763 757 766 766 735 712 710 704 704 708 704 706 713 711 707 707 705 702 707 712 710 711 714 714 714 716 721 727 727 724 718 715 719 718 713 712 712 717 720 716 715 715 720 729 734 742 746 745 750 749 753 772 774 760 748 740 757 778 756 728 726 725 721 722 722 720 721 722 721 722 723 723 726
786 782 779 778 776 775 774 768 765 766 765 766 766 763 763 764 760 757 741 720 717 714 703 705 706 703 707 709 709 706 705 705 702 704 711 711 714 716 716 718 719 728 736 731 728 725 719 719 716 711 709 709 720 728 726 722 720 726 732 737 753 765 768 776 772 769 778 770 750 741 739 752 761 742 722 717 714 713 712 710 709 710 713 715 718 718 718 721
783 778 775 773 771 769 767 766 765 765 764 766 766 759 760 767 757 738 725 719 716 706 700 704 703 702 708 708 708 704 702 704 700 700 703 704 711 711 709 707 705 720 728 724 727 730 727 721 713 715 714 707 715 727 732 731 727 730 733 738 754 765 779 790 780 773 775 762 742 733 740 752 750 731 718 713 709 706 703 701 701 702 705 709 711 712 714 716
779 775 771 767 767 765 763 764 763 762 764 764 762 758 762 763 742 723 721 715 705 700 702 705 705 706 707 706 704 700 703 703 695 699 701 702 710 711 708 704 700 707 713 716 722 725 735 733 716 713 714 707 710 714 716 720 725 727 720 726 740 746 761 776 771 770 771 758 743 739 748 756 749 728 709 704 701 698 698 696 695 698 700 702 704 707 710 711
775 772 768 764 764 763 761 762 761 761 763 759 756 757 757 750 731 721 718 707 700 702 702 703 707 710 707 702 698 696 702 702 694 697 700 701 706 705 703 702 698 701 708 717 717 713 728 727 702 698 701 701 709 705 699 710 725 723 712 721 731 726 732 747 749 747 749 754 749 742 746 741 726 712 700 700 700 696 697 695 694 699 699 699 704 704 705 707
772 769 766 763 762 762 761 761 760 761 760 754 753 750 739 729 721 715 708 701 700 701 703 706 707 712 711 702 698 697 699 699 697 700 699 697 698 696 695 694 690 695 701 709 712 711 724 718 694 694 698 694 701 700 695 706 719 718 718 724 717 705 713 735 744 734 737 758 749 733 741 735 721 715 703 700 704 699 698 697 695 697 697 700 703 701 701 701
772 768 764 761 760 760 759 759 759 761 757 751 748 737 723 715 710 705 701 700 700 698 706 713 707 707 709 703 699 696 697 699 698 701 699 696 694 689 689 688 684 688 690 695 703 703 713 716 696 696 705 694 689 695 695 694 699 712 722 715 704 705 711 723 742 745 750 764 746 727 739 740 736 731 709 700 706 702 698 695 691 692 695 699 699 697 697 696
775 769 762 758 759 758 757 758 758 758 754 749 742 729 718 712 706 702 701 701 702 700 706 712 703 698 702 703 696 689 694 700 698 699 698 695 692 683 682 686 682 683 683 687 698 696 703 717 702 691 703 697 686 697 705 695 689 698 703 696 703 727 733 727 737 748 755 762 749 734 731 730 731 725 708 705 707 701 696 692 689 690 693 695 693 692 693 693
776 768 758 755 758 757 756 758 757 755 752 745 738 727 717 711 704 701 700 700 703 704 706 705 699 697 698 697 692 687 692 696 693 696 697 695 693 681 676 681 680 681 680 683 694 692 696 717 711 690 691 695 693 702 711 706 696 694 695 694 700 714 724 725 727 733 743 751 750 743 734 725 717 706 701 703 699 694 694 691 689 688 686 687 688 687 689 691
777 769 757 754 758 757 757 758 754 753 748 737 728 719 711 708 704 701 700 701 702 702 704 702 698 700 699 694 691 688 691 692 689 694 694 690 692 686 675 675 677 679 678 679 688 688 692 711 715 696 688 696 702 701 700 701 700 702 708 711 706 703 708 715 715 716 727 739 743 744 739 720 699 688 690 693 690 689 690 689 687 684 679 679 680 681 683 686
778 769 756 754 758 756 757 757 750 745 740 730 720 714 708 706 703 701 698 699 699 697 697 698 697 698 697 695 693 689 690 693 691 692 692 687 690 689 676 670 673 675 678 683 686 686 692 704 710 703 698 702 699 687 684 687 687 694 705 709 707 705 712 725 726 713 712 723 728 732 737 716 684 675 681 684 685 684 683 685 684 679 675 672 673 675 677 680
776 765 753 753 757 756 756 752 742 735 732 724 716 710 707 706 705 703 699 698 699 697 695 697 697 697 696 694 692 688 689 692 690 690 690 686 686 684 673 668 670 669 674 683 681 676 681 693 705 705 698 694 687 675 676 680 677 681 689 693 697 700 706 722 731 720 710 713 711 715 727 713 677 665 674 679 679 677 675 677 678 674 670 667 669 671 672 675
773 763 753 752 754 753 754 749 736 729 724 717 712 708 706 706 706 704 700 698 698 697 697 696 695 695 695 691 690 690 689 691 689 687 687 686 682 676 670 669 671 670 673 681 679 673 679 692 705 707 695 685 679 672 670 673 678 684 683 681 687 692 693 700 708 710 710 711 712 719 725 709 676 663 669 673 673 673 671 671 673 672 667 665 669 670 670 674
773 765 755 751 751 751 750 743 732 725 718 713 712 710 706 705 704 702 700 698 695 694 695 693 691 692 690 688 689 689 689 692 691 684 684 686 680 671 668 668 673 674 673 675 673 673 684 695 703 712 714 708 702 693 686 682 684 687 682 678 680 681 685 690 693 701 707 705 708 717 719 703 679 667 670 671 672 672 669 666 667 669 666 665 667 669 670 673
772 762 751 746 747 748 744 735 729 727 723 718 717 714 710 705 701 699 699 696 691 690 690 688 686 686 686 687 688 687 685 689 689 683 681 682 677 669 667 669 672 672 669 669 668 669 682 691 695 707 719 722 719 709 697 691 688 686 682 678 677 677 683 690 695 705 709 702 700 704 705 696 679 670 674 675 673 673 669 665 663 663 664 664 667 670 671 673
773 763 750 742 739 740 737 730 729 731 728 726 725 719 713 708 700 695 696 696 692 688 687 685 681 682 685 686 688 688 684 683 685 684 681 680 676 668 666 668 670 670 670 672 671 672 680 684 685 694 697 696 697 690 680 680 686 689 687 682 678 677 678 685 694 700 699 699 702 696 693 694 683 674 677 676 673 674 671 667 665 663 663 663 665 669 670 671
775 765 753 749 745 740 733 726 727 731 729 729 729 722 716 712 704 696 693 693 691 688 688 685 682 683 685 685 687 688 684 681 682 683 682 680 674 667 666 668 669 670 672 674 671 675 686 688 683 686 686 679 677 673 669 672 679 683 683 682 679 677 677 681 688 687 686 697 705 692 687 695 688 675 673 671 670 672 669 666 665 662 661 660 661 665 668 669
771 762 755 757 757 749 740 735 735 738 737 733 730 724 720 717 711 703 695 690 687 686 688 688 684 683 682 682 685 687 685 685 684 682 682 680 676 673 671 670 669 668 670 672 668 672 689 692 682 681 683 676 671 669 666 668 672 674 675 676 677 677 678 680 681 678 679 691 695 685 684 691 684 673 668 664 664 667 665 661 660 658 656 656 659 663 665 666
768 762 757 759 759 754 750 748 746 744 740 735 731 726 724 721 714 705 697 695 692 685 686 690 686 681 680 678 681 684 685 686 686 681 679 679 679 679 678 675 669 664 666 670 666 668 683 689 681 678 679 673 669 667 664 664 667 669 669 669 670 671 672 675 676 673 674 679 678 677 682 682 673 668 664 657 655 657 656 655 656 655 654 656 659 661 661 661
769 765 762 764 763 758 754 752 749 746 739 734 733 728 723 720 716 709 704 705 705 693 686 688 685 680 678 676 677 680 679 679 681 678 677 680 679 677 677 675 668 663 665 669 667 670 681 686 678 675 679 675 666 663 662 662 663 665 666 664 664 665 666 668 670 669 672 676 673 674 681 677 664 658 657 654 651 652 654 655 655 655 654 655 657 657 657 657
773 770 769 771 767 757 752 748 745 745 738 732 730 725 722 720 719 719 715 708 706 700 692 691 691 686 681 678 679 680 677 676 679 678 677 680 679 674 674 672 669 668 668 667 669 672 679 682 676 677 686 679 665 663 664 660 660 662 662 661 661 663 664 662 660 662 666 672 675 677 679 672 661 655 655 653 651 653 655 655 655 654 652 653 654 654 654 654
774 772 770 772 767 756 751 747 743 743 737 729 726 725 725 724 723 727 724 709 700 700 698 699 700 696 689 686 684 683 680 680 681 679 677 677 675 673 674 672 670 672 671 669 670 672 676 682 679 682 691 682 665 662 660 661 673 674 662 655 656 657 658 657 654 652 653 659 669 672 667 660 655 653 654 654 653 654 653 651 652 652 650 649 650 650 650 649